Sitka, AK

8:36 AM AKDT on May 22, 2018 (GMT -0800)
Sitka Rocky Gutierrez

Weather History for PASI - March, 2013

Change the Weather History Date:

Sunday, March 3, 2013

  Actual Average Record
Temperature  
Mean Temperature 37 °F 37 °F  
Max Temperature 42 °F 42 °F 49 °F (2016)
Min Temperature 32 °F 32 °F 9 °F (1955)
Degree Days  
Heating Degree Days 28 28  
Month to date heating degree days 84  
Moisture  
Dew Point 34 °F    
Average Humidity 89    
Maximum Humidity 100    
Minimum Humidity 70    
Precipitation  
Precipitation 0.00 in 0.23 in 1.17 in (1954)
Month to date precipitation 0.69  
Year to date precipitation 15.56  
Sea Level Pressure  
Sea Level Pressure 30.35 in    
Wind  
Wind Speed 2 mph (ENE)    
Max Wind Speed 7 mph    
Max Gust Speed -    
Visibility 10 miles    
Events      
T = Trace of Precipitation, MM = Missing Value Source: NWS Daily Summary

Daily Weather History Graph

Daily Weather History Graph

Search for Another Location

Airport or City:

Astronomy

Mar. 03, 2013 Rise Set
Actual Time 6:48 AM AKST 5:39 PM AKST
Civil Twilight 6:09 AM AKST 6:17 PM AKST
Nautical Twilight 5:25 AM AKST 7:02 PM AKST
Astronomical Twilight 4:40 AM AKST 7:47 PM AKST
Moon 12:43 AM AKST (3/3) 8:49 AM AKST (3/3)
Length of Visible Light 12h 07m
Length of Day
10h 51m
Waning Gibbous, 62% of the Moon is Illuminated
Mar 3
Waning Gibbous
Mar 4
Last Quarter
Mar 11
New
Mar 19
First Quarter
Mar 27
Full

Hourly Weather History & Observations

Time (AKST) Temp. Windchill Dew Point Humidity Pressure Visibility Wind Dir Wind Speed Gust Speed Precip Events Conditions
12:21 AM 37.4 °F - 35.6 °F 93% 30.21 in 10.0 mi Calm Calm - N/A   Overcast
12:53 AM 37.0 °F 34.5 °F 35.1 °F 93% 30.22 in 10.0 mi East 3.5 mph - N/A   Overcast
1:34 AM 37.4 °F 32.8 °F 35.6 °F 93% 30.24 in 9.0 mi East 5.8 mph - N/A   Overcast
1:53 AM 37.0 °F 33.3 °F 35.1 °F 93% 30.25 in 10.0 mi East 4.6 mph - N/A   Overcast
3:53 AM 36.0 °F - 34.0 °F 93% 30.27 in 10.0 mi Calm Calm - N/A   Mostly Cloudy
4:04 AM 35.6 °F - 33.8 °F 93% 30.27 in 10.0 mi Calm Calm - N/A   Scattered Clouds
4:25 AM 35.6 °F 32.8 °F 33.8 °F 93% 30.28 in 10.0 mi East 3.5 mph - N/A   Partly Cloudy
4:53 AM 34.0 °F - 33.1 °F 96% 30.28 in 10.0 mi Calm Calm - N/A   Clear
5:53 AM 35.1 °F - 34.0 °F 96% 30.29 in 10.0 mi Calm Calm - N/A   Clear
6:53 AM 33.1 °F 30.0 °F 30.9 °F 92% 30.31 in 10.0 mi East 3.5 mph - N/A   Scattered Clouds
7:12 AM 33.8 °F 30.8 °F 32.0 °F 93% 30.31 in 10.0 mi East 3.5 mph - N/A   Scattered Clouds
7:53 AM 33.1 °F - 33.1 °F 100% 30.32 in 10.0 mi Calm Calm - N/A   Scattered Clouds
8:53 AM 36.0 °F - 33.1 °F 89% 30.35 in 10.0 mi Calm Calm - N/A   Mostly Cloudy
9:01 AM 37.4 °F - 33.8 °F 87% 30.35 in 10.0 mi Calm Calm - N/A   Scattered Clouds
9:09 AM 37.4 °F - 35.6 °F 93% 30.35 in 10.0 mi Calm Calm - N/A   Mostly Cloudy
9:32 AM 37.4 °F - 35.6 °F 93% 30.36 in 10.0 mi Calm Calm - N/A   Overcast
9:46 AM 37.4 °F - 33.8 °F 87% 30.36 in 10.0 mi Calm Calm - N/A   Mostly Cloudy
9:53 AM 37.9 °F - 35.1 °F 89% 30.36 in 10.0 mi Calm Calm - N/A   Mostly Cloudy
10:08 AM 37.4 °F - 35.6 °F 93% 30.36 in 10.0 mi Calm Calm - N/A   Scattered Clouds
10:53 AM 39.9 °F - 36.0 °F 86% 30.38 in 10.0 mi Calm Calm - N/A   Scattered Clouds
11:53 AM 39.9 °F 36.7 °F 36.0 °F 86% 30.39 in 10.0 mi WNW 4.6 mph - N/A   Scattered Clouds
12:53 PM 39.9 °F 35.1 °F 36.0 °F 86% 30.40 in 10.0 mi NW 6.9 mph - N/A   Scattered Clouds
1:53 PM 41.0 °F 36.4 °F 33.1 °F 73% 30.40 in 10.0 mi NW 6.9 mph - N/A   Mostly Cloudy
2:53 PM 42.1 °F 39.2 °F 33.1 °F 70% 30.41 in 10.0 mi NW 4.6 mph - N/A   Mostly Cloudy
3:53 PM 42.1 °F 40.2 °F 34.0 °F 73% 30.41 in 10.0 mi NW 3.5 mph - N/A   Scattered Clouds
4:53 PM 42.1 °F - 34.0 °F 73% 30.41 in 10.0 mi Calm Calm - N/A   Partly Cloudy
5:53 PM 39.9 °F - 35.1 °F 83% 30.41 in 10.0 mi Calm Calm - N/A   Partly Cloudy
6:53 PM 36.0 °F 32.1 °F 33.1 °F 89% 30.42 in 10.0 mi East 4.6 mph - N/A   Clear
7:53 PM 36.0 °F 31.1 °F 33.1 °F 89% 30.43 in 10.0 mi East 5.8 mph - N/A   Partly Cloudy
8:53 PM 34.0 °F 31.0 °F 32.0 °F 92% 30.43 in 10.0 mi ENE 3.5 mph - N/A   Clear
9:53 PM 33.1 °F - 30.9 °F 92% 30.43 in 10.0 mi Calm Calm - N/A   Clear
10:53 PM 32.0 °F 28.7 °F 30.9 °F 96% 30.44 in 10.0 mi East 3.5 mph - N/A   Clear
11:53 PM 32.0 °F - 30.2 °F 93% 30.44 in 10.0 mi Calm Calm - N/A   Clear